Regional Weather Roundup
Issued by NWS

Home | Current Version | Previous Version | Text Only | Print | Product List | Glossary Off
Versions: 1 2 3 4 5 6 7 8 9 10 11 12 13 14 15 16 17 18 19 20 21 22 23 24 25 26 27 28 29 30 31 32 33 34 35 36 37 38 39 40 41 42 43 44 45 46 47 48 49 50

000
ASUS43 KFSD 220802
RWRSD

WEATHER ROUNDUP FOR SOUTH DAKOTA
NATIONAL WEATHER SERVICE SIOUX FALLS SD
300 AM CDT SUN OCT 22 2017

NOTE: "FAIR" INDICATES FEW OR NO CLOUDS BELOW 12,000 FEET WITH NO
SIGNIFICANT WEATHER AND/OR OBSTRUCTIONS TO VISIBILITY.


SDZ001>005-009-010-012>017-220900-
NORTHWEST AND NORTH CENTRAL SOUTH DAKOTA

CITY           SKY/WX    TMP DP  RH WIND       PRES   REMARKS
BUFFALO          N/A     33  20  58 W9        29.86S WCI  25
MOBRIDGE       CLEAR     37  28  70 N5        29.90R
$$

SDZ012>016-024>037-041>051-057-063-072>074-220900-
SOUTHWEST AND SOUTH CENTRAL SOUTH DAKOTA

CITY           SKY/WX    TMP DP  RH WIND       PRES   REMARKS
RAPID CTY ARPT CLEAR     35  17  47 W6        29.98S
PIERRE         CLEAR     40  30  67 SW9       29.96R
CUSTER         CLEAR     32  12  43 W7        29.99S WCI  26
ELLSWORTH AFB  CLEAR     31  16  52 NW8       29.97S WCI  24
PHILIP         CLEAR     32  25  75 W7        29.99R WCI  26
PINE RIDGE     CLEAR     23  18  81 CALM      30.03R
SPEARFISH      FAIR      37  16  41 CALM      29.98S
WINNER         FAIR      40  28  62 SW9       30.00S
$$

SDZ004>011-016>023-039-040-220900-
NORTHEAST SOUTH DAKOTA

CITY           SKY/WX    TMP DP  RH WIND       PRES   REMARKS
ABERDEEN       CLEAR     34  32  92 SW7       29.90R WCI  28
WATERTOWN      CLEAR     40  37  89 W10       29.90R
BROOKINGS      CLEAR     41  36  82 SW6       29.93S
SISSETON         N/A     48  37  65 W14       29.86R
$$

SDZ017-020-022-023-036>040-048>070-220900-
SOUTHEAST SOUTH DAKOTA

CITY           SKY/WX    TMP DP  RH WIND       PRES   REMARKS
SIOUX FALLS    CLOUDY    42  37  82 CALM      29.95F
HURON          CLEAR     41  35  79 SW9       29.95R
CHAMBERLAIN    CLEAR     40  32  74 W3        29.98S
MITCHELL       CLEAR     39  34  82 CALM      29.98R
YANKTON        CLEAR     41  34  76 CALM      29.98F
$$

ABBREVIATIONS USED IN REMARKS
   TC - TEMPERATURE IN CELSIUS
  WCI - WIND CHILL INDEX
   HX - HEAT INDEX
  VSB - VISIBILITY





USA.gov is the U.S. government's official web portal to all federal, state and local government web resources and services.